This is the latest recevied weather packets stored in our database for station/object N6RDS. If no packets are shown the sender has not sent any weather packets the latest 10 day(s).
| Time | Temp. | Humidity | Pressure | Rain* | Wind** | Luminosity | Snow |
|---|---|---|---|---|---|---|---|
| 1777602122 | 13.33° C | 30% | 1020.5 hPa | 0 mm | - | 1 W/m² | - |
| 1777601816 | 13.89° C | 29% | 1020.5 hPa | 0 mm | - | 1 W/m² | - |
| 1777601512 | 13.89° C | 27% | 1020.4 hPa | 0 mm | - | 2 W/m² | - |
| 1777601207 | 14.44° C | 27% | 1020.2 hPa | 0 mm | - | 4 W/m² | - |
| 1777600905 | 14.44° C | 25% | 1020.1 hPa | 0 mm | - | 7 W/m² | - |
| 1777600601 | 15° C | 25% | 1020.2 hPa | 0 mm | - | 10 W/m² | - |
| 1777600297 | 15° C | 25% | 1020.1 hPa | 0 mm | - | 14 W/m² | - |
| 1777599993 | 15° C | 25% | 1020.1 hPa | 0 mm | - | 18 W/m² | - |
| 1777599689 | 15.56° C | 24% | 1019.9 hPa | 0 mm | - | 22 W/m² | - |
| 1777599385 | 15.56° C | 25% | 1020 hPa | 0 mm | - | 26 W/m² | - |
| 1777599083 | 15.56° C | 25% | 1019.9 hPa | 0 mm | - | 32 W/m² | - |
| 1777598780 | 15.56° C | 25% | 1019.7 hPa | 0 mm | - | 33 W/m² | - |
| 1777598475 | 16.11° C | 24% | 1020 hPa | 0 mm | - | 36 W/m² | - |
| 1777598174 | 15.56° C | 25% | 1019.6 hPa | 0 mm | - | 41 W/m² | - |
| 1777597869 | 15.56° C | 25% | 1019.9 hPa | 0 mm | - | 47 W/m² | - |
| 1777597564 | 15.56° C | 25% | 1020.1 hPa | 0 mm | - | 46 W/m² | - |
| 1777597259 | 15.56° C | 25% | 1019.9 hPa | 0 mm | - | 45 W/m² | - |
| 1777596954 | 15.56° C | 25% | 1019.9 hPa | 0 mm | - | 44 W/m² | - |
| 1777596651 | 15.56° C | 25% | 1020 hPa | 0 mm | - | 45 W/m² | - |
| 1777596348 | 15.56° C | 24% | 1020.1 hPa | 0 mm | - | 56 W/m² | - |
| 1777596045 | 15.56° C | 25% | 1019.7 hPa | 0 mm | - | 56 W/m² | - |
| 1777595740 | 16.11° C | 25% | 1020.1 hPa | 0 mm | - | 64 W/m² | - |
| 1777595435 | 16.11° C | 25% | 1020 hPa | 0 mm | - | 67 W/m² | - |
| 1777595132 | 16.11° C | 25% | 1019.6 hPa | 0 mm | - | 65 W/m² | - |
| 1777594828 | 16.11° C | 25% | 1019.7 hPa | 0 mm | - | 61 W/m² | - |
* Rain latest hour (hover to see other rain measurements)
** Current wind speed in m/s (hover to see current wind gust speed)